Time,TemperatureF,DewpointF,PressureIn,WindDirection,WindDirectionDegrees,WindSpeedMPH,WindSpeedGustMPH,Humidity,HourlyPrecipIn,Conditions,Clouds,dailyrainin,SoftwareType,DateUTC
2013-07-19 00:03:00,81.0,74.6,29.90,South,185,3.0,8.0,81,0.00,CLR,CLR,0.00,WeatherDisplay:10.37,2013-07-19 05:03:00,
2013-07-19 00:13:00,80.8,74.4,29.90,SSW,207,5.0,13.0,81,0.00,CLR,CLR,0.00,WeatherDisplay:10.37,2013-07-19 05:13:00,
2013-07-19 00:23:00,80.5,74.5,29.89,South,189,5.0,10.0,82,0.00,CLR,CLR,0.00,WeatherDisplay:10.37,2013-07-19 05:23:00,
2013-07-19 00:33:00,80.4,74.4,29.89,SSW,199,3.0,10.0,82,0.00,CLR,CLR,0.00,WeatherDisplay:10.37,2013-07-19 05:33:00,
2013-07-19 00:43:00,80.2,74.2,29.89,SW,227,1.0,8.0,82,0.00,CLR,CLR,0.00,WeatherDisplay:10.37,2013-07-19 05:43:00,
2013-07-19 00:53:00,80.1,74.1,29.89,SW,216,1.0,8.0,82,0.00,CLR,CLR,0.00,WeatherDisplay:10.37,2013-07-19 05:53:00,
2013-07-19 01:03:00,80.2,74.6,29.88,SW,225,5.0,10.0,83,0.00,CLR,CLR,0.00,WeatherDisplay:10.37,2013-07-19 06:03:00,
2013-07-19 01:13:00,80.4,74.4,29.88,SW,217,1.0,10.0,82,0.00,CLR,CLR,0.00,WeatherDisplay:10.37,2013-07-19 06:13:00,
2013-07-19 01:23:00,80.2,74.2,29.88,West,259,1.0,6.0,82,0.00,CLR,CLR,0.00,WeatherDisplay:10.37,2013-07-19 06:23:00,
2013-07-19 01:33:00,80.1,74.1,29.88,SW,225,3.0,13.0,82,0.00,CLR,CLR,0.00,WeatherDisplay:10.37,2013-07-19 06:33:00,
2013-07-19 01:43:00,80.1,74.1,29.87,SW,225,2.0,12.0,82,0.00,CLR,CLR,0.00,WeatherDisplay:10.37,2013-07-19 06:43:00,
2013-07-19 01:53:00,80.2,73.9,29.86,WSW,247,2.0,16.0,81,0.00,CLR,CLR,0.00,WeatherDisplay:10.37,2013-07-19 06:53:00,
2013-07-19 02:03:00,80.1,73.7,29.87,SW,235,5.0,14.0,81,0.00,CLR,CLR,0.00,WeatherDisplay:10.37,2013-07-19 07:03:00,
2013-07-19 02:13:00,80.1,73.7,29.86,WSW,242,3.0,13.0,81,0.00,CLR,CLR,0.00,WeatherDisplay:10.37,2013-07-19 07:13:00,
2013-07-19 02:23:00,80.0,73.6,29.86,WSW,237,2.0,9.0,81,0.00,CLR,CLR,0.00,WeatherDisplay:10.37,2013-07-19 07:23:00,
2013-07-19 02:33:00,79.8,73.5,29.86,WSW,251,3.0,10.0,81,0.00,CLR,CLR,0.00,WeatherDisplay:10.37,2013-07-19 07:33:00,
2013-07-19 02:43:00,79.6,73.3,29.86,SW,214,5.0,10.0,81,0.00,CLR,CLR,0.00,WeatherDisplay:10.37,2013-07-19 07:43:00,
2013-07-19 02:53:00,79.5,73.2,29.85,SW,232,2.0,17.0,81,0.00,CLR,CLR,0.00,WeatherDisplay:10.37,2013-07-19 07:53:00,
2013-07-19 03:03:00,79.3,73.0,29.84,SW,215,3.0,10.0,81,0.00,CLR,CLR,0.00,WeatherDisplay:10.37,2013-07-19 08:03:00,
2013-07-19 03:13:00,79.0,73.0,29.84,SSW,213,3.0,12.0,82,0.00,CLR,CLR,0.00,WeatherDisplay:10.37,2013-07-19 08:13:00,
2013-07-19 03:23:00,78.8,72.8,29.84,SW,220,3.0,14.0,82,0.00,CLR,CLR,0.00,WeatherDisplay:10.37,2013-07-19 08:23:00,
2013-07-19 03:33:00,78.6,72.7,29.83,SSW,200,6.0,13.0,82,0.00,CLR,CLR,0.00,WeatherDisplay:10.37,2013-07-19 08:33:00,
2013-07-19 03:43:00,78.6,72.7,29.83,SW,219,6.0,15.0,82,0.00,CLR,CLR,0.00,WeatherDisplay:10.37,2013-07-19 08:43:00,
2013-07-19 03:53:00,78.4,72.5,29.83,SW,231,5.0,14.0,82,0.00,CLR,CLR,0.00,WeatherDisplay:10.37,2013-07-19 08:53:00,
2013-07-19 04:03:00,78.3,72.3,29.82,SW,228,6.0,12.0,82,0.00,CLR,CLR,0.00,WeatherDisplay:10.37,2013-07-19 09:03:00,
2013-07-19 04:13:00,78.3,71.9,29.82,SW,218,5.0,12.0,81,0.00,CLR,CLR,0.00,WeatherDisplay:10.37,2013-07-19 09:13:00,
2013-07-19 04:23:00,78.1,71.8,29.82,SW,214,3.0,17.0,81,0.00,CLR,CLR,0.00,WeatherDisplay:10.37,2013-07-19 09:23:00,
2013-07-19 04:33:00,78.1,71.8,29.82,SW,223,7.0,15.0,81,0.00,CLR,CLR,0.00,WeatherDisplay:10.37,2013-07-19 09:33:00,
2013-07-19 04:43:00,78.8,71.7,29.82,WSW,252,6.0,15.0,79,0.00,CLR,CLR,0.00,WeatherDisplay:10.37,2013-07-19 09:43:00,
2013-07-19 04:53:00,78.8,71.7,29.81,WSW,243,6.0,17.0,79,0.00,CLR,CLR,0.00,WeatherDisplay:10.37,2013-07-19 09:53:00,
2013-07-19 05:03:00,78.8,71.7,29.82,WSW,255,7.0,13.0,79,0.00,CLR,CLR,0.00,WeatherDisplay:10.37,2013-07-19 10:03:00,
2013-07-19 05:13:00,79.0,71.5,29.82,West,264,5.0,14.0,78,0.00,CLR,CLR,0.00,WeatherDisplay:10.37,2013-07-19 10:13:00,
2013-07-19 05:23:00,79.2,71.3,29.82,West,262,8.0,16.0,77,0.00,CLR,CLR,0.00,WeatherDisplay:10.37,2013-07-19 10:23:00,
2013-07-19 05:33:00,79.3,71.1,29.81,SW,234,5.0,18.0,76,0.00,CLR,CLR,0.00,WeatherDisplay:10.37,2013-07-19 10:33:00,
2013-07-19 05:43:00,79.3,71.1,29.82,WSW,252,12.0,20.0,76,0.00,CLR,CLR,0.00,WeatherDisplay:10.37,2013-07-19 10:43:00,
2013-07-19 05:53:00,79.2,71.0,29.82,SSW,213,3.0,17.0,76,0.00,CLR,CLR,0.00,WeatherDisplay:10.37,2013-07-19 10:53:00,
2013-07-19 06:03:00,79.3,71.1,29.82,SW,234,7.0,15.0,76,0.00,FEW,FEW,0.00,WeatherDisplay:10.37,2013-07-19 11:03:00,
2013-07-19 06:13:00,80.2,70.8,29.82,WSW,237,5.0,13.0,73,0.00,FEW,FEW,0.00,WeatherDisplay:10.37,2013-07-19 11:13:00,
2013-07-19 06:23:00,79.7,71.1,29.82,WSW,238,7.0,21.0,75,0.00,FEW,FEW,0.00,WeatherDisplay:10.37,2013-07-19 11:23:00,
2013-07-19 06:33:00,80.6,70.7,29.82,West,262,5.0,20.0,72,0.00,FEW,FEW,0.00,WeatherDisplay:10.37,2013-07-19 11:33:00,
2013-07-19 06:43:00,81.1,70.8,29.82,SW,225,5.0,17.0,71,0.00,FEW,FEW,0.00,WeatherDisplay:10.37,2013-07-19 11:43:00,
2013-07-19 06:53:00,81.4,70.7,29.83,WSW,252,8.0,22.0,70,0.00,FEW,FEW,0.00,WeatherDisplay:10.37,2013-07-19 11:53:00,
2013-07-19 07:03:00,81.9,70.7,29.82,WSW,253,8.0,16.0,69,0.00,SCT,SCT,0.00,WeatherDisplay:10.37,2013-07-19 12:03:00,
2013-07-19 07:13:00,82.6,70.5,29.83,WSW,242,7.0,20.0,67,0.00,SCT,SCT,0.00,WeatherDisplay:10.37,2013-07-19 12:13:00,
2013-07-19 07:23:00,80.5,70.7,29.83,WSW,253,9.0,20.0,72,0.00,SCT,SCT,0.00,WeatherDisplay:10.37,2013-07-19 12:23:00,
2013-07-19 07:33:00,80.2,70.4,29.84,WSW,243,7.0,20.0,72,0.00,SCT,SCT,0.00,WeatherDisplay:10.37,2013-07-19 12:33:00,
2013-07-19 07:43:00,81.8,70.6,29.84,WSW,249,6.0,16.0,69,0.00,SCT,SCT,0.00,WeatherDisplay:10.37,2013-07-19 12:43:00,
2013-07-19 07:53:00,83.8,70.3,29.84,WSW,248,5.0,22.0,64,0.00,SCT,SCT,0.00,WeatherDisplay:10.37,2013-07-19 12:53:00,
2013-07-19 08:03:00,84.0,70.1,29.84,West,267,9.0,25.0,63,0.00,BKN,BKN,0.00,WeatherDisplay:10.37,2013-07-19 13:03:00,
2013-07-19 08:13:00,84.0,70.0,29.84,West,262,10.0,24.0,63,0.00,BKN,BKN,0.00,WeatherDisplay:10.37,2013-07-19 13:13:00,
2013-07-19 08:23:00,84.6,70.6,29.83,West,263,6.0,20.0,63,0.00,BKN,BKN,0.00,WeatherDisplay:10.37,2013-07-19 13:23:00,
2013-07-19 08:33:00,86.1,70.1,29.83,West,261,6.0,17.0,59,0.00,BKN,BKN,0.00,WeatherDisplay:10.37,2013-07-19 13:33:00,
2013-07-19 08:43:00,85.3,70.3,29.83,West,270,9.0,22.0,61,0.00,BKN,BKN,0.00,WeatherDisplay:10.37,2013-07-19 13:43:00,
2013-07-19 09:03:00,83.7,70.7,29.82,West,259,5.0,18.0,65,0.00,BKN,BKN,0.00,WeatherDisplay:10.37,2013-07-19 14:03:00,
2013-07-19 09:13:00,83.7,70.7,29.82,WSW,241,8.0,20.0,65,0.00,BKN,BKN,0.00,WeatherDisplay:10.37,2013-07-19 14:13:00,
2013-07-19 09:23:00,84.3,71.7,29.82,WSW,247,3.0,25.0,66,0.00,BKN,BKN,0.00,WeatherDisplay:10.37,2013-07-19 14:23:00,
2013-07-19 09:33:00,84.7,71.6,29.81,SW,222,5.0,17.0,65,0.00,BKN,BKN,0.00,WeatherDisplay:10.37,2013-07-19 14:33:00,
2013-07-19 09:43:00,84.6,71.0,29.81,WSW,247,6.0,20.0,64,0.00,BKN,BKN,0.00,WeatherDisplay:10.37,2013-07-19 14:43:00,
2013-07-19 09:53:00,84.7,71.7,29.81,WSW,257,5.0,14.0,65,0.00,BKN,BKN,0.00,WeatherDisplay:10.37,2013-07-19 14:53:00,
2013-07-19 10:03:00,85.6,71.5,29.81,WSW,250,3.0,13.0,63,0.00,BKN,BKN,0.00,WeatherDisplay:10.37,2013-07-19 15:03:00,
2013-07-19 10:13:00,85.5,71.0,29.81,WSW,250,8.0,15.0,62,0.00,BKN,BKN,0.00,WeatherDisplay:10.37,2013-07-19 15:13:00,
2013-07-19 10:23:00,86.0,71.0,29.82,West,267,9.0,21.0,61,0.00,BKN,BKN,0.00,WeatherDisplay:10.37,2013-07-19 15:23:00,
2013-07-19 10:33:00,87.5,70.9,29.81,WSW,252,10.0,23.0,58,0.00,BKN,BKN,0.00,WeatherDisplay:10.37,2013-07-19 15:33:00,
2013-07-19 10:43:00,87.1,71.5,29.81,West,271,3.0,22.0,60,0.00,BKN,BKN,0.00,WeatherDisplay:10.37,2013-07-19 15:43:00,
2013-07-19 10:53:00,86.8,71.8,29.80,WSW,243,6.0,18.0,61,0.00,BKN,BKN,0.00,WeatherDisplay:10.37,2013-07-19 15:53:00,
2013-07-19 11:03:00,87.1,72.1,29.80,WSW,237,7.0,21.0,61,0.00,SCT,SCT,0.00,WeatherDisplay:10.37,2013-07-19 16:03:00,
2013-07-19 11:13:00,88.3,71.1,29.80,West,265,14.0,32.0,57,0.00,SCT,SCT,0.00,WeatherDisplay:10.37,2013-07-19 16:13:00,
2013-07-19 11:23:00,86.5,71.0,29.80,WSW,239,14.0,29.0,60,0.00,SCT,SCT,0.00,WeatherDisplay:10.37,2013-07-19 16:23:00,
2013-07-19 11:33:00,85.3,71.7,29.80,WSW,243,10.0,22.0,64,0.02,RA,RA,0.02,WeatherDisplay:10.37,2013-07-19 16:33:00,
2013-07-19 11:43:00,86.5,71.5,29.80,WSW,253,10.0,26.0,61,0.00,SCT,SCT,0.02,WeatherDisplay:10.37,2013-07-19 16:43:00,
2013-07-19 11:53:00,87.6,72.5,29.80,WSW,239,9.0,20.0,61,0.00,SCT,SCT,0.02,WeatherDisplay:10.37,2013-07-19 16:53:00,
2013-07-19 12:03:00,87.9,71.3,29.80,West,261,9.0,24.0,58,0.00,SCT,SCT,0.02,WeatherDisplay:10.37,2013-07-19 17:03:00,
2013-07-19 12:13:00,87.6,71.0,29.79,West,272,9.0,22.0,58,0.00,SCT,SCT,0.02,WeatherDisplay:10.37,2013-07-19 17:13:00,
2013-07-19 12:23:00,87.8,71.7,29.79,West,269,8.0,17.0,59,0.00,SCT,SCT,0.02,WeatherDisplay:10.37,2013-07-19 17:23:00,
2013-07-19 12:33:00,88.6,71.9,29.78,West,260,6.0,15.0,58,0.00,SCT,SCT,0.02,WeatherDisplay:10.37,2013-07-19 17:33:00,
2013-07-19 12:43:00,88.9,71.7,29.78,West,278,7.0,21.0,57,0.00,SCT,SCT,0.02,WeatherDisplay:10.37,2013-07-19 17:43:00,
2013-07-19 12:53:00,89.3,72.6,29.78,West,263,12.0,23.0,58,0.00,SCT,SCT,0.02,WeatherDisplay:10.37,2013-07-19 17:53:00,
2013-07-19 13:03:00,90.0,72.7,29.78,WSW,253,8.0,24.0,57,0.00,SCT,SCT,0.02,WeatherDisplay:10.37,2013-07-19 18:03:00,
2013-07-19 13:13:00,89.2,72.5,29.78,SW,235,9.0,25.0,58,0.00,SCT,SCT,0.02,WeatherDisplay:10.37,2013-07-19 18:13:00,
2013-07-19 13:23:00,89.0,73.8,29.78,WSW,256,3.0,20.0,61,0.00,SCT,SCT,0.02,WeatherDisplay:10.37,2013-07-19 18:23:00,
2013-07-19 13:33:00,89.4,71.6,29.78,West,274,5.0,21.0,56,0.00,SCT,SCT,0.02,WeatherDisplay:10.37,2013-07-19 18:33:00,
2013-07-19 13:43:00,89.4,72.2,29.78,West,259,12.0,28.0,57,0.00,SCT,SCT,0.02,WeatherDisplay:10.37,2013-07-19 18:43:00,
2013-07-19 13:53:00,89.1,70.9,29.77,West,262,12.0,25.0,55,0.00,SCT,SCT,0.02,WeatherDisplay:10.37,2013-07-19 18:53:00,
2013-07-19 14:03:00,89.3,70.5,29.77,West,275,14.0,30.0,54,0.00,SCT,SCT,0.02,WeatherDisplay:10.37,2013-07-19 19:03:00,
2013-07-19 14:13:00,89.6,71.3,29.77,West,280,8.0,30.0,55,0.00,SCT,SCT,0.02,WeatherDisplay:10.37,2013-07-19 19:13:00,
2013-07-19 14:23:00,90.7,73.4,29.77,WSW,255,7.0,23.0,57,0.00,SCT,SCT,0.02,WeatherDisplay:10.37,2013-07-19 19:23:00,
2013-07-19 14:33:00,91.2,72.3,29.77,SW,235,8.0,20.0,54,0.00,SCT,SCT,0.02,WeatherDisplay:10.37,2013-07-19 19:33:00,
2013-07-19 14:43:00,91.2,73.3,29.76,SW,236,9.0,23.0,56,0.00,SCT,SCT,0.02,WeatherDisplay:10.37,2013-07-19 19:43:00,
2013-07-19 14:53:00,91.2,72.8,29.77,West,271,13.0,23.0,55,0.00,SCT,SCT,0.02,WeatherDisplay:10.37,2013-07-19 19:53:00,
2013-07-19 15:03:00,91.4,72.4,29.76,WSW,255,6.0,23.0,54,0.00,FEW,FEW,0.02,WeatherDisplay:10.37,2013-07-19 20:03:00,
2013-07-19 15:13:00,90.9,73.0,29.76,West,266,6.0,21.0,56,0.00,FEW,FEW,0.02,WeatherDisplay:10.37,2013-07-19 20:13:00,
2013-07-19 15:23:00,89.4,73.2,29.76,WSW,254,9.0,23.0,59,0.00,FEW,FEW,0.02,WeatherDisplay:10.37,2013-07-19 20:23:00,
2013-07-19 15:33:00,89.5,73.8,29.76,SW,236,10.0,17.0,60,0.00,FEW,FEW,0.02,WeatherDisplay:10.37,2013-07-19 20:33:00,
2013-07-19 15:43:00,90.9,74.0,29.75,WSW,250,8.0,20.0,58,0.00,FEW,FEW,0.02,WeatherDisplay:10.37,2013-07-19 20:43:00,
2013-07-19 15:53:00,90.5,73.2,29.75,WSW,255,5.0,25.0,57,0.00,FEW,FEW,0.02,WeatherDisplay:10.37,2013-07-19 20:53:00,
2013-07-19 16:03:00,90.2,73.5,29.75,WSW,250,7.0,21.0,58,0.00,SCT,SCT,0.02,WeatherDisplay:10.37,2013-07-19 21:03:00,
2013-07-19 16:13:00,89.8,74.1,29.75,WSW,258,5.0,22.0,60,0.00,SCT,SCT,0.02,WeatherDisplay:10.37,2013-07-19 21:13:00,
2013-07-19 16:23:00,89.6,73.9,29.75,West,259,6.0,18.0,60,0.00,SCT,SCT,0.02,WeatherDisplay:10.37,2013-07-19 21:23:00,
2013-07-19 16:33:00,91.4,73.5,29.75,West,259,10.0,22.0,56,0.00,SCT,SCT,0.02,WeatherDisplay:10.37,2013-07-19 21:33:00,
2013-07-19 16:43:00,91.0,73.7,29.75,WSW,244,9.0,25.0,57,0.00,SCT,SCT,0.02,WeatherDisplay:10.37,2013-07-19 21:43:00,
2013-07-19 16:53:00,90.3,72.5,29.75,West,259,6.0,15.0,56,0.00,SCT,SCT,0.02,WeatherDisplay:10.37,2013-07-19 21:53:00,
2013-07-19 17:03:00,91.9,70.6,29.75,WSW,250,6.0,25.0,50,0.00,SCT,SCT,0.02,WeatherDisplay:10.37,2013-07-19 22:03:00,
2013-07-19 17:13:00,91.9,70.6,29.75,West,266,5.0,24.0,50,0.00,SCT,SCT,0.02,WeatherDisplay:10.37,2013-07-19 22:13:00,
2013-07-19 17:23:00,92.3,70.4,29.75,WSW,246,10.0,23.0,49,0.00,SCT,SCT,0.02,WeatherDisplay:10.37,2013-07-19 22:23:00,
2013-07-19 17:33:00,92.0,69.5,29.75,WNW,291,7.0,22.0,48,0.00,SCT,SCT,0.02,WeatherDisplay:10.37,2013-07-19 22:33:00,
2013-07-19 17:43:00,90.1,69.5,29.75,WNW,284,3.0,22.0,51,0.00,SCT,SCT,0.02,WeatherDisplay:10.37,2013-07-19 22:43:00,
2013-07-19 17:53:00,89.7,69.7,29.74,WSW,253,6.0,22.0,52,0.00,SCT,SCT,0.02,WeatherDisplay:10.37,2013-07-19 22:53:00,
2013-07-19 18:03:00,91.6,69.8,29.74,WNW,283,8.0,26.0,49,0.00,FEW,FEW,0.02,WeatherDisplay:10.37,2013-07-19 23:03:00,
2013-07-19 18:13:00,89.6,70.2,29.74,West,262,3.0,21.0,53,0.00,FEW,FEW,0.02,WeatherDisplay:10.37,2013-07-19 23:13:00,
2013-07-19 18:23:00,88.8,70.6,29.74,West,264,3.0,15.0,55,0.00,FEW,FEW,0.02,WeatherDisplay:10.37,2013-07-19 23:23:00,
2013-07-19 18:33:00,88.7,71.5,29.74,WNW,283,2.0,13.0,57,0.00,FEW,FEW,0.02,WeatherDisplay:10.37,2013-07-19 23:33:00,
2013-07-19 18:43:00,88.9,72.2,29.74,WSW,254,9.0,26.0,58,0.00,FEW,FEW,0.02,WeatherDisplay:10.37,2013-07-19 23:43:00,
2013-07-19 18:53:00,88.0,72.4,29.74,WSW,257,8.0,20.0,60,0.00,FEW,FEW,0.02,WeatherDisplay:10.37,2013-07-19 23:53:00,
2013-07-19 19:03:00,87.7,72.6,29.75,West,278,0.0,9.0,61,0.00,FEW,FEW,0.02,WeatherDisplay:10.37,2013-07-20 00:03:00,
2013-07-19 19:13:00,87.4,71.3,29.75,West,273,6.0,22.0,59,0.00,FEW,FEW,0.02,WeatherDisplay:10.37,2013-07-20 00:13:00,
2013-07-19 19:23:00,87.3,70.7,29.75,West,270,1.0,10.0,58,0.00,FEW,FEW,0.02,WeatherDisplay:10.37,2013-07-20 00:23:00,
2013-07-19 19:33:00,86.7,68.1,29.76,WNW,285,1.0,12.0,54,0.00,FEW,FEW,0.02,WeatherDisplay:10.37,2013-07-20 00:33:00,
2013-07-19 19:43:00,86.4,66.1,29.76,West,274,2.0,17.0,51,0.00,FEW,FEW,0.02,WeatherDisplay:10.37,2013-07-20 00:43:00,
2013-07-19 19:53:00,86.0,65.2,29.76,WNW,300,1.0,9.0,50,0.00,FEW,FEW,0.02,WeatherDisplay:10.37,2013-07-20 00:53:00,
2013-07-19 20:03:00,85.6,63.0,29.76,WNW,288,3.0,8.0,47,0.00,FEW,FEW,0.02,WeatherDisplay:10.37,2013-07-20 01:03:00,
2013-07-19 20:13:00,84.9,62.4,29.76,West,279,1.0,9.0,47,0.00,FEW,FEW,0.02,WeatherDisplay:10.37,2013-07-20 01:13:00,
2013-07-19 20:23:00,84.0,62.8,29.77,WNW,282,2.0,5.0,49,0.00,FEW,FEW,0.02,WeatherDisplay:10.37,2013-07-20 01:23:00,
2013-07-19 20:33:00,83.1,62.6,29.77,WNW,300,1.0,5.0,50,0.00,FEW,FEW,0.02,WeatherDisplay:10.37,2013-07-20 01:33:00,
2013-07-19 20:43:00,82.6,62.6,29.77,WNW,296,0.0,3.0,51,0.00,FEW,FEW,0.02,WeatherDisplay:10.37,2013-07-20 01:43:00,
2013-07-19 20:53:00,81.9,62.5,29.77,WNW,286,2.0,9.0,52,0.00,FEW,FEW,0.02,WeatherDisplay:10.37,2013-07-20 01:53:00,
2013-07-19 21:03:00,81.5,63.3,29.78,NW,313,0.0,2.0,54,0.00,FEW,FEW,0.02,WeatherDisplay:10.37,2013-07-20 02:03:00,
2013-07-19 21:13:00,80.8,63.1,29.79,WNW,285,0.0,7.0,55,0.00,FEW,FEW,0.02,WeatherDisplay:10.37,2013-07-20 02:13:00,
2013-07-19 21:23:00,80.6,63.5,29.80,WSW,238,0.0,3.0,56,0.00,FEW,FEW,0.02,WeatherDisplay:10.37,2013-07-20 02:23:00,
2013-07-19 21:33:00,80.1,64.0,29.80,WNW,300,0.0,3.0,58,0.00,FEW,FEW,0.02,WeatherDisplay:10.37,2013-07-20 02:33:00,
2013-07-19 21:43:00,79.9,64.3,29.81,WNW,285,1.0,3.0,59,0.00,FEW,FEW,0.02,WeatherDisplay:10.37,2013-07-20 02:43:00,
2013-07-19 21:53:00,79.5,64.9,29.81,WNW,301,0.0,3.0,61,0.00,FEW,FEW,0.02,WeatherDisplay:10.37,2013-07-20 02:53:00,
2013-07-19 22:03:00,79.2,65.0,29.82,NW,315,1.0,6.0,62,0.00,CLR,CLR,0.02,WeatherDisplay:10.37,2013-07-20 03:03:00,
2013-07-19 22:13:00,78.7,65.1,29.82,West,277,0.0,6.0,63,0.00,CLR,CLR,0.02,WeatherDisplay:10.37,2013-07-20 03:13:00,
2013-07-19 22:23:00,78.0,65.3,29.82,NNW,345,0.0,3.0,65,0.00,CLR,CLR,0.02,WeatherDisplay:10.37,2013-07-20 03:23:00,
2013-07-19 22:33:00,77.5,65.3,29.82,NNW,330,0.0,3.0,66,0.00,CLR,CLR,0.02,WeatherDisplay:10.37,2013-07-20 03:33:00,
2013-07-19 22:43:00,76.9,65.5,29.83,NW,305,0.0,1.0,68,0.00,CLR,CLR,0.02,WeatherDisplay:10.37,2013-07-20 03:43:00,
2013-07-19 22:53:00,76.5,65.9,29.82,NNW,334,0.0,6.0,70,0.00,CLR,CLR,0.02,WeatherDisplay:10.37,2013-07-20 03:53:00,
2013-07-19 23:03:00,76.1,66.0,29.83,North,350,0.0,5.0,71,0.00,CLR,CLR,0.02,WeatherDisplay:10.37,2013-07-20 04:03:00,
2013-07-19 23:13:00,75.7,66.1,29.83,NW,318,0.0,2.0,72,0.00,CLR,CLR,0.02,WeatherDisplay:10.37,2013-07-20 04:13:00,
2013-07-19 23:23:00,75.1,65.9,29.83,NW,316,0.0,6.0,73,0.00,CLR,CLR,0.02,WeatherDisplay:10.37,2013-07-20 04:23:00,
2013-07-19 23:33:00,75.0,65.8,29.83,WNW,302,0.0,0.0,73,0.00,CLR,CLR,0.02,WeatherDisplay:10.37,2013-07-20 04:33:00,
2013-07-19 23:43:00,75.0,65.8,29.83,NW,310,0.0,6.0,73,0.00,CLR,CLR,0.02,WeatherDisplay:10.37,2013-07-20 04:43:00,
2013-07-19 23:53:00,74.8,65.2,29.83,NW,312,0.0,3.0,72,0.00,CLR,CLR,0.02,WeatherDisplay:10.37,2013-07-20 04:53:00,